"read_dt","SO2 (ppb)","flags","PMT voltage (V)","lamp voltage (V)","lamp intensity (Hz)","internal temp (C)","react chamber temp (C)","sample flow (l/min)","pres (mmHg)","SO2 bkg (ppb)","SO2 coefficient"
2014-09-18 00:00:00,3776E-3,5C000000,-0724,0831,12321,028.4,045.5,0.476,732.4,01.19,0.508
2014-09-18 00:01:00,3738E-3,5C000000,-0724,0829,12160,028.5,045.5,0.476,732.4,01.19,0.508
2014-09-18 00:02:00,3502E-3,5C000000,-0724,0828,11118,028.4,045.5,0.476,732.3,01.19,0.508
2014-09-18 00:03:00,3910E-3,5C000000,-0724,0831,11351,028.5,045.5,0.476,732.3,01.19,0.508
2014-09-18 00:04:00,3596E-3,5C000000,-0724,0838,12419,028.5,045.5,0.476,732.4,01.19,0.508
2014-09-18 00:05:00,3571E-3,5C000000,-0724,0845,11330,028.5,045.5,0.476,732.3,01.19,0.508
2014-09-18 00:06:00,3593E-3,5C000000,-0724,0836,12477,028.5,045.5,0.476,732.4,01.19,0.508
2014-09-18 00:07:00,3538E-3,5C000000,-0724,0834,8916,028.5,045.5,0.475,732.3,01.19,0.508
2014-09-18 00:08:00,3689E-3,5C000000,-0724,0833,12786,028.5,045.5,0.475,732.3,01.19,0.508
2014-09-18 00:09:00,3589E-3,5C000000,-0724,0832,12461,028.5,045.5,0.475,732.3,01.19,0.508
2014-09-18 00:10:00,3771E-3,5C000000,-0724,0831,11487,028.5,045.5,0.476,732.3,01.19,0.508
2014-09-18 00:11:00,3831E-3,5C000000,-0724,0832,12259,028.5,045.5,0.476,732.3,01.19,0.508
2014-09-18 00:12:00,3928E-3,5C000000,-0724,0839,12707,028.5,045.4,0.476,732.3,01.19,0.508
2014-09-18 00:13:00,3505E-3,5C000000,-0724,0837,10105,028.5,045.5,0.476,732.2,01.19,0.508
2014-09-18 00:14:00,3665E-3,5C000000,-0724,0830,12301,028.5,045.5,0.476,732.3,01.19,0.508
2014-09-18 00:15:00,3690E-3,5C000000,-0724,0835,12429,028.5,045.5,0.476,732.2,01.19,0.508
2014-09-18 00:16:00,3769E-3,5C000000,-0724,0834,10028,028.5,045.5,0.476,732.2,01.19,0.508
2014-09-18 00:17:00,3836E-3,5C000000,-0724,0836,12489,028.5,045.5,0.476,732.2,01.19,0.508
2014-09-18 00:18:00,3754E-3,5C000000,-0724,0832,12326,028.5,045.5,0.476,732.2,01.19,0.508
2014-09-18 00:19:00,3911E-3,5C000000,-0724,0830,12314,028.5,045.5,0.475,732.2,01.19,0.508
2014-09-18 00:20:00,3618E-3,5C000000,-0724,0834,12465,028.5,045.5,0.475,732.0,01.19,0.508
2014-09-18 00:21:00,3715E-3,5C000000,-0724,0830,12408,028.5,045.5,0.475,732.2,01.19,0.508
2014-09-18 00:22:00,3773E-3,5C000000,-0724,0834,11250,028.5,045.5,0.475,732.2,01.19,0.508
2014-09-18 00:23:00,3700E-3,5C000000,-0724,0829,12099,028.5,045.5,0.475,732.2,01.19,0.508
2014-09-18 00:24:00,3767E-3,5C000000,-0724,0835,12530,028.5,045.5,0.475,732.2,01.19,0.508
2014-09-18 00:25:00,3907E-3,5C000000,-0724,0829,11260,028.6,045.5,0.476,732.2,01.19,0.508
2014-09-18 00:26:00,3776E-3,5C000000,-0724,0827,12383,028.5,045.5,0.476,732.2,01.19,0.508
2014-09-18 00:27:00,3808E-3,5C000000,-0724,0830,12374,028.5,045.5,0.476,732.1,01.19,0.508
2014-09-18 00:28:00,3948E-3,5C000000,-0724,0828,12508,028.5,045.5,0.476,732.0,01.19,0.508
2014-09-18 00:29:00,3771E-3,5C000000,-0724,0830,10028,028.6,045.5,0.476,732.0,01.19,0.508
2014-09-18 00:30:00,4042E-3,5C000000,-0724,0827,12313,028.5,045.5,0.476,732.1,01.19,0.508
2014-09-18 00:31:00,4023E-3,5C000000,-0724,0831,8801,028.5,045.5,0.476,732.0,01.19,0.508
2014-09-18 00:32:00,3891E-3,5C000000,-0724,0831,12339,028.5,045.5,0.476,732.2,01.19,0.508
2014-09-18 00:33:00,3795E-3,5C000000,-0724,0837,11547,028.5,045.5,0.476,732.2,01.19,0.508
2014-09-18 00:34:00,3652E-3,5C000000,-0724,0833,11447,028.5,045.5,0.475,732.0,01.19,0.508
2014-09-18 00:35:00,3835E-3,5C000000,-0724,0833,11294,028.6,045.5,0.475,732.2,01.19,0.508
2014-09-18 00:36:00,3613E-3,5C000000,-0724,0833,11250,028.5,045.5,0.475,732.0,01.19,0.508
2014-09-18 00:37:00,3777E-3,5C000000,-0724,0832,12573,028.5,045.5,0.475,732.1,01.19,0.508
2014-09-18 00:38:00,3841E-3,5C000000,-0724,0831,12269,028.5,045.5,0.476,732.1,01.19,0.508
2014-09-18 00:39:00,3610E-3,5C000000,-0724,0833,12766,028.5,045.5,0.476,732.1,01.19,0.508
2014-09-18 00:40:00,3637E-3,5C000000,-0724,0834,12385,028.5,045.5,0.476,732.0,01.19,0.508
2014-09-18 00:41:00,3678E-3,5C000000,-0724,0838,12143,028.5,045.5,0.476,732.1,01.19,0.508
2014-09-18 00:42:00,3814E-3,5C000000,-0724,0830,9984,028.5,045.5,0.475,732.1,01.19,0.508
2014-09-18 00:43:00,3937E-3,5C000000,-0724,0828,11171,028.5,045.5,0.475,732.0,01.19,0.508
2014-09-18 00:44:00,3868E-3,5C000000,-0724,0830,12201,028.4,045.5,0.475,732.2,01.19,0.508
2014-09-18 00:45:00,3832E-3,5C000000,-0724,0827,12309,028.4,045.5,0.475,732.1,01.19,0.508
2014-09-18 00:46:00,3826E-3,5C000000,-0724,0829,12197,028.4,045.5,0.476,732.0,01.19,0.508
2014-09-18 00:47:00,3725E-3,5C000000,-0724,0829,12328,028.4,045.5,0.476,732.1,01.19,0.508
2014-09-18 00:48:00,3746E-3,5C000000,-0724,0826,12426,028.4,045.5,0.476,732.0,01.19,0.508
2014-09-18 00:49:00,4006E-3,5C000000,-0724,0829,12149,028.4,045.5,0.476,732.1,01.19,0.508
2014-09-18 00:50:00,3799E-3,5C000000,-0724,0827,12175,028.4,045.5,0.476,732.1,01.19,0.508
2014-09-18 00:51:00,3733E-3,5C000000,-0724,0829,12181,028.4,045.5,0.476,732.0,01.19,0.508
2014-09-18 00:52:00,3462E-3,5C000000,-0724,0827,12230,028.4,045.5,0.476,732.1,01.19,0.508
2014-09-18 00:53:00,3722E-3,5C000000,-0724,0829,12380,028.4,045.5,0.476,732.0,01.19,0.508
2014-09-18 00:54:00,3785E-3,5C000000,-0724,0828,12191,028.4,045.5,0.476,732.1,01.19,0.508
2014-09-18 00:55:00,3647E-3,5C000000,-0724,0831,12438,028.4,045.4,0.476,732.2,01.19,0.508
2014-09-18 00:56:00,3582E-3,5C000000,-0724,0830,12242,028.4,045.5,0.476,732.2,01.19,0.508
2014-09-18 00:57:00,3716E-3,5C000000,-0724,0830,12459,028.4,045.5,0.476,732.1,01.19,0.508
2014-09-18 00:58:00,3439E-3,5C000000,-0724,0835,10234,028.4,045.5,0.476,732.0,01.19,0.508
2014-09-18 00:59:00,3444E-3,5C000000,-0724,0834,10191,028.4,045.5,0.476,732.0,01.19,0.508
2014-09-18 01:00:00,3463E-3,5C000000,-0724,0827,12266,028.4,045.5,0.476,732.0,01.19,0.508
2014-09-18 01:01:00,3486E-3,5C000000,-0724,0831,12508,028.4,045.5,0.476,732.0,01.19,0.508
2014-09-18 01:02:00,3665E-3,5C000010,-0724,0840,10533,028.4,045.5,0.476,732.1,01.19,0.508
2014-09-18 01:03:00,3695E-3,5C000000,-0724,0827,12358,028.4,045.5,0.476,732.0,01.19,0.508
2014-09-18 01:04:00,3593E-3,5C000000,-0724,0828,12290,028.4,045.5,0.475,732.1,01.19,0.508
2014-09-18 01:05:00,3746E-3,5C000000,-0724,0827,12153,028.4,045.5,0.476,732.0,01.19,0.508
2014-09-18 01:06:00,3489E-3,5C000000,-0724,0828,12330,028.4,045.5,0.475,732.0,01.19,0.508
2014-09-18 01:07:00,3347E-3,5C000000,-0724,0827,12156,028.4,045.5,0.476,732.0,01.19,0.508
2014-09-18 01:08:00,3585E-3,5C000000,-0724,0829,12192,028.4,045.5,0.476,731.9,01.19,0.508
2014-09-18 01:09:00,3626E-3,5C000000,-0724,0831,9972,028.5,045.5,0.476,732.0,01.19,0.508
2014-09-18 01:10:00,3405E-3,5C000000,-0724,0829,11042,028.5,045.5,0.476,731.9,01.19,0.508
2014-09-18 01:11:00,3528E-3,5C000000,-0724,0829,11987,028.5,045.5,0.476,731.9,01.19,0.508
2014-09-18 01:12:00,3457E-3,5C000000,-0724,0827,12241,028.6,045.5,0.476,732.0,01.19,0.508
2014-09-18 01:13:00,3536E-3,5C000000,-0724,0828,12200,028.6,045.5,0.476,732.0,01.19,0.508
2014-09-18 01:14:00,3535E-3,5C000000,-0724,0828,12291,028.6,045.5,0.476,731.9,01.19,0.508
2014-09-18 01:15:00,3554E-3,5C000000,-0724,0829,12186,028.6,045.5,0.476,732.0,01.19,0.508
2014-09-18 01:16:00,3535E-3,5C000000,-0724,0828,11287,028.7,045.5,0.476,732.1,01.19,0.508
2014-09-18 01:17:00,3389E-3,5C000000,-0724,0832,12466,028.7,045.5,0.476,731.9,01.19,0.508
2014-09-18 01:18:00,3336E-3,5C000000,-0724,0834,12505,028.7,045.5,0.476,732.0,01.19,0.508
2014-09-18 01:19:00,3562E-3,5C000000,-0724,0828,12420,028.7,045.5,0.476,731.9,01.19,0.508
2014-09-18 01:20:00,3455E-3,5C000000,-0724,0831,12415,028.7,045.5,0.476,732.0,01.19,0.508
2014-09-18 01:21:00,3294E-3,5C000000,-0724,0831,12287,028.7,045.5,0.476,732.0,01.19,0.508
2014-09-18 01:22:00,3322E-3,5C000000,-0724,0829,12319,028.7,045.5,0.475,731.9,01.19,0.508
2014-09-18 01:23:00,3508E-3,5C000000,-0724,0828,12325,028.7,045.5,0.475,731.9,01.19,0.508
2014-09-18 01:24:00,3421E-3,5C000000,-0724,0827,12171,028.6,045.5,0.475,732.0,01.19,0.508
2014-09-18 01:25:00,3389E-3,5C000000,-0724,0827,12157,028.5,045.5,0.475,731.9,01.19,0.508
2014-09-18 01:26:00,3498E-3,5C000000,-0724,0828,12158,028.4,045.5,0.475,732.1,01.19,0.508
2014-09-18 01:27:00,3240E-3,5C000000,-0724,0827,12415,028.3,045.5,0.475,732.1,01.19,0.508
2014-09-18 01:28:00,3408E-3,5C000000,-0724,0828,12170,028.2,045.5,0.475,732.0,01.19,0.508
2014-09-18 01:29:00,3478E-3,5C000000,-0724,0829,12106,028.2,045.5,0.475,732.0,01.19,0.508
2014-09-18 01:30:00,3210E-3,5C000000,-0724,0829,12375,028.1,045.5,0.475,732.0,01.19,0.508
2014-09-18 01:31:00,3385E-3,5C000000,-0724,0828,12275,028.1,045.4,0.476,732.1,01.19,0.508
2014-09-18 01:32:00,3272E-3,5C000000,-0724,0830,11055,028.0,045.5,0.476,732.0,01.19,0.508
2014-09-18 01:33:00,3176E-3,5C000000,-0724,0829,12450,028.0,045.5,0.476,732.0,01.19,0.508
2014-09-18 01:34:00,3126E-3,5C000000,-0724,0831,10227,028.0,045.5,0.476,732.1,01.19,0.508
2014-09-18 01:35:00,3087E-3,5C000000,-0724,0829,12525,027.9,045.5,0.476,732.0,01.19,0.508
2014-09-18 01:36:00,3236E-3,5C000000,-0724,0829,11085,027.9,045.4,0.477,732.0,01.19,0.508
2014-09-18 01:37:00,3384E-3,5C000000,-0724,0828,12311,027.9,045.4,0.477,732.0,01.19,0.508
2014-09-18 01:38:00,3385E-3,5C000000,-0724,0827,12086,027.9,045.5,0.477,732.1,01.19,0.508
2014-09-18 01:39:00,3140E-3,5C000000,-0724,0826,12031,027.9,045.5,0.477,731.9,01.19,0.508
2014-09-18 01:40:00,3466E-3,5C000000,-0724,0827,12236,027.9,045.5,0.477,732.0,01.19,0.508
2014-09-18 01:41:00,3152E-3,5C000000,-0724,0828,12081,027.9,045.5,0.477,732.0,01.19,0.508
2014-09-18 01:42:00,3224E-3,5C000000,-0724,0828,12300,027.9,045.5,0.477,732.0,01.19,0.508
2014-09-18 01:43:00,3182E-3,5C000000,-0724,0828,12426,027.9,045.4,0.477,731.9,01.19,0.508
2014-09-18 01:44:00,3203E-3,5C000000,-0724,0828,11107,027.9,045.5,0.477,732.0,01.19,0.508
2014-09-18 01:45:00,3198E-3,5C000000,-0724,0828,12148,027.9,045.5,0.477,731.9,01.19,0.508
2014-09-18 01:46:00,3125E-3,5C000000,-0724,0829,12031,027.9,045.5,0.477,731.9,01.19,0.508
2014-09-18 01:47:00,3126E-3,5C000000,-0724,0828,12200,027.9,045.5,0.477,731.9,01.19,0.508
2014-09-18 01:48:00,3382E-3,5C000000,-0724,0828,11083,027.9,045.5,0.477,732.0,01.19,0.508
2014-09-18 01:49:00,3210E-3,5C000000,-0724,0831,11370,027.9,045.5,0.477,731.9,01.19,0.508
2014-09-18 01:50:00,3076E-3,5C000000,-0724,0830,12219,027.9,045.5,0.477,732.0,01.19,0.508
2014-09-18 01:51:00,2929E-3,5C000000,-0724,0832,11233,027.9,045.5,0.477,732.0,01.19,0.508
2014-09-18 01:52:00,3014E-3,5C000000,-0724,0829,12310,027.9,045.5,0.476,732.0,01.19,0.508
2014-09-18 01:53:00,3182E-3,5C000000,-0724,0830,12353,027.9,045.5,0.477,732.1,01.19,0.508
2014-09-18 01:54:00,2901E-3,5C000000,-0724,0829,11250,027.8,045.4,0.477,732.0,01.19,0.508
2014-09-18 01:55:00,3042E-3,5C000000,-0724,0831,12214,027.9,045.5,0.477,732.0,01.19,0.508
2014-09-18 01:56:00,2987E-3,5C000000,-0724,0828,12139,027.9,045.4,0.477,732.0,01.19,0.508
2014-09-18 01:57:00,3072E-3,5C000000,-0724,0829,12563,027.9,045.4,0.477,731.9,01.19,0.508
2014-09-18 01:58:00,3069E-3,5C000000,-0724,0831,12381,027.9,045.4,0.477,732.0,01.19,0.508
2014-09-18 01:59:00,3005E-3,5C000000,-0724,0832,12617,027.9,045.5,0.477,732.0,01.19,0.508
2014-09-18 02:00:00,2963E-3,5C000000,-0724,0830,12368,027.8,045.4,0.477,732.0,01.19,0.508
2014-09-18 02:01:00,3020E-3,5C000000,-0724,0831,12512,027.8,045.4,0.477,732.0,01.19,0.508
2014-09-18 02:02:00,2958E-3,5C000010,-0724,0830,12546,027.8,045.4,0.476,731.9,01.19,0.508
2014-09-18 02:03:00,2908E-3,5C000000,-0724,0837,12462,027.8,045.4,0.477,732.0,01.19,0.508
2014-09-18 02:04:00,2930E-3,5C000000,-0724,0829,12288,027.8,045.5,0.477,731.9,01.19,0.508
2014-09-18 02:05:00,3042E-3,5C000000,-0724,0833,11150,027.9,045.5,0.477,732.0,01.19,0.508
2014-09-18 02:06:00,3011E-3,5C000000,-0724,0830,12418,027.9,045.4,0.476,732.0,01.19,0.508
2014-09-18 02:07:00,3058E-3,5C000000,-0724,0830,12427,027.9,045.5,0.477,732.0,01.19,0.508
2014-09-18 02:08:00,3005E-3,5C000000,-0724,0828,11259,027.9,045.5,0.477,731.9,01.19,0.508
2014-09-18 02:09:00,3101E-3,5C000000,-0724,0831,12369,027.9,045.5,0.477,731.9,01.19,0.508
2014-09-18 02:10:00,2910E-3,5C000000,-0724,0833,12590,027.9,045.5,0.476,732.0,01.19,0.508
2014-09-18 02:11:00,2749E-3,5C000000,-0724,0828,12360,027.9,045.5,0.477,731.9,01.19,0.508
2014-09-18 02:12:00,3271E-3,5C000000,-0724,0828,12193,027.9,045.5,0.477,732.0,01.19,0.508
2014-09-18 02:13:00,3189E-3,5C000000,-0724,0829,11289,028.0,045.5,0.477,732.0,01.19,0.508
2014-09-18 02:14:00,3211E-3,5C000000,-0724,0827,12005,028.0,045.5,0.476,732.0,01.19,0.508
2014-09-18 02:15:00,3027E-3,5C000000,-0724,0828,12240,028.0,045.5,0.477,732.1,01.19,0.508
2014-09-18 02:16:00,2933E-3,5C000000,-0724,0828,12215,028.0,045.5,0.477,732.1,01.19,0.508
2014-09-18 02:17:00,3127E-3,5C000000,-0724,0829,12148,028.0,045.5,0.477,732.0,01.19,0.508
2014-09-18 02:18:00,2985E-3,5C000000,-0724,0828,12214,028.0,045.5,0.476,732.1,01.19,0.508
2014-09-18 02:19:00,2908E-3,5C000000,-0724,0828,12310,028.0,045.5,0.476,732.0,01.19,0.508
2014-09-18 02:20:00,3158E-3,5C000000,-0724,0827,12231,028.0,045.5,0.477,732.0,01.19,0.508
2014-09-18 02:21:00,3073E-3,5C000000,-0724,0828,12094,028.0,045.5,0.477,732.0,01.19,0.508
2014-09-18 02:22:00,3055E-3,5C000000,-0724,0828,12017,028.1,045.5,0.476,732.2,01.19,0.508
2014-09-18 02:23:00,2960E-3,5C000000,-0724,0828,12346,028.1,045.5,0.476,732.0,01.19,0.508
2014-09-18 02:24:00,2948E-3,5C000000,-0724,0828,12091,028.1,045.5,0.476,732.1,01.19,0.508
2014-09-18 02:25:00,2916E-3,5C000000,-0724,0830,12175,028.1,045.5,0.477,732.0,01.19,0.508
2014-09-18 02:26:00,2980E-3,5C000000,-0724,0830,12246,028.1,045.5,0.477,732.1,01.19,0.508
2014-09-18 02:27:00,3028E-3,5C000000,-0724,0827,12394,028.1,045.5,0.476,732.0,01.19,0.508
2014-09-18 02:28:00,3015E-3,5C000000,-0724,0828,12311,028.1,045.4,0.476,732.0,01.19,0.508
2014-09-18 02:29:00,3148E-3,5C000000,-0724,0829,11047,028.2,045.4,0.477,732.0,01.19,0.508
2014-09-18 02:30:00,3086E-3,5C000000,-0724,0828,12191,028.2,045.5,0.477,732.1,01.19,0.508
2014-09-18 02:31:00,2803E-3,5C000000,-0724,0830,12381,028.2,045.5,0.476,732.1,01.19,0.508
2014-09-18 02:32:00,2819E-3,5C000000,-0724,0832,11155,028.2,045.5,0.476,732.0,01.19,0.508
2014-09-18 02:33:00,3025E-3,5C000000,-0724,0833,12257,028.2,045.5,0.476,732.0,01.19,0.508
2014-09-18 02:34:00,2915E-3,5C000000,-0724,0830,12401,028.2,045.5,0.476,732.0,01.19,0.508
2014-09-18 02:35:00,2970E-3,5C000000,-0724,0830,11495,028.2,045.5,0.476,732.0,01.19,0.508
2014-09-18 02:36:00,3047E-3,5C000000,-0724,0833,11185,028.2,045.5,0.476,731.9,01.19,0.508
2014-09-18 02:37:00,2962E-3,5C000000,-0724,0832,11355,028.3,045.5,0.476,731.9,01.19,0.508
2014-09-18 02:38:00,2958E-3,5C000000,-0724,0832,10242,028.3,045.4,0.476,732.0,01.19,0.508
2014-09-18 02:39:00,2963E-3,5C000000,-0724,0838,11612,028.3,045.4,0.476,732.0,01.19,0.508
2014-09-18 02:40:00,2906E-3,5C000000,-0724,0844,7763,028.3,045.5,0.476,731.9,01.19,0.508
2014-09-18 02:41:00,2816E-3,5C000000,-0724,0834,12413,028.3,045.5,0.476,732.0,01.19,0.508
2014-09-18 02:42:00,3134E-3,5C000000,-0724,0833,11392,028.3,045.5,0.476,732.0,01.19,0.508
2014-09-18 02:43:00,3001E-3,5C000000,-0724,0830,10294,028.3,045.5,0.476,732.1,01.19,0.508
2014-09-18 02:44:00,2814E-3,5C000000,-0724,0828,10040,028.3,045.5,0.476,732.0,01.19,0.508
2014-09-18 02:45:00,2921E-3,5C000000,-0724,0830,11227,028.4,045.5,0.476,732.0,01.19,0.508
2014-09-18 02:46:00,2860E-3,5C000000,-0724,0829,12332,028.4,045.5,0.476,731.9,01.19,0.508
2014-09-18 02:47:00,2951E-3,5C000000,-0724,0836,12448,028.4,045.4,0.476,732.0,01.19,0.508
2014-09-18 02:48:00,3003E-3,5C000000,-0724,0833,12274,028.4,045.4,0.476,732.0,01.19,0.508
2014-09-18 02:49:00,3158E-3,5C000000,-0724,0831,11360,028.5,045.4,0.475,731.9,01.19,0.508
2014-09-18 02:50:00,3061E-3,5C000000,-0724,0839,12662,028.5,045.5,0.475,732.0,01.19,0.508
2014-09-18 02:51:00,3067E-3,5C000000,-0724,0838,12603,028.5,045.5,0.475,731.9,01.19,0.508
2014-09-18 02:52:00,2970E-3,5C000000,-0724,0842,13064,028.5,045.5,0.475,732.0,01.19,0.508
2014-09-18 02:53:00,2961E-3,5C000000,-0724,0834,12936,028.5,045.5,0.476,731.9,01.19,0.508
2014-09-18 02:54:00,2989E-3,5C000000,-0724,0834,12523,028.5,045.5,0.476,731.9,01.19,0.508
2014-09-18 02:55:00,3121E-3,5C000000,-0724,0835,12625,028.5,045.5,0.476,732.0,01.19,0.508
2014-09-18 02:56:00,3063E-3,5C000000,-0724,0831,12653,028.4,045.5,0.476,731.8,01.19,0.508
2014-09-18 02:57:00,3008E-3,5C000000,-0724,0837,12677,028.4,045.5,0.476,732.0,01.19,0.508
2014-09-18 02:58:00,2991E-3,5C000000,-0724,0834,12828,028.4,045.5,0.476,732.0,01.19,0.508
2014-09-18 02:59:00,3055E-3,5C000000,-0724,0836,11301,028.3,045.5,0.476,731.9,01.19,0.508
2014-09-18 03:00:00,3211E-3,5C000000,-0724,0831,12323,028.3,045.5,0.476,732.0,01.19,0.508
2014-09-18 03:01:00,3117E-3,5C000000,-0724,0829,12173,028.2,045.5,0.476,732.0,01.19,0.508
2014-09-18 03:02:00,3295E-3,5C000000,-0724,0832,11318,028.1,045.5,0.476,732.0,01.19,0.508
2014-09-18 03:03:00,3005E-3,5C000000,-0724,0840,12546,028.2,045.5,0.476,731.9,01.19,0.508
2014-09-18 03:04:00,3237E-3,5C000000,-0724,0835,11282,028.1,045.5,0.476,732.0,01.19,0.508
2014-09-18 03:05:00,3145E-3,5C000000,-0724,0835,12750,028.0,045.5,0.476,732.0,01.19,0.508
2014-09-18 03:06:00,3066E-3,5C000000,-0724,0833,12787,028.0,045.5,0.476,732.0,01.19,0.508
2014-09-18 03:07:00,3062E-3,5C000000,-0724,0838,12718,028.0,045.4,0.476,732.0,01.19,0.508
2014-09-18 03:08:00,3042E-3,5C000000,-0724,0832,11430,027.9,045.5,0.476,732.0,01.19,0.508
2014-09-18 03:09:00,2836E-3,5C000000,-0724,0841,11475,027.9,045.5,0.476,732.0,01.19,0.508
2014-09-18 03:10:00,2994E-3,5C000000,-0724,0833,12370,027.8,045.4,0.476,731.9,01.19,0.508
2014-09-18 03:11:00,3037E-3,5C000010,-0724,0840,9123,027.8,045.5,0.476,732.0,01.19,0.508
2014-09-18 03:12:00,2900E-3,5C000000,-0724,0837,11934,027.8,045.5,0.477,732.1,01.19,0.508
2014-09-18 03:13:00,2915E-3,5C000000,-0724,0833,11482,027.7,045.4,0.477,732.0,01.19,0.508
2014-09-18 03:14:00,3108E-3,5C000000,-0724,0829,11253,027.7,045.5,0.477,732.0,01.19,0.508
2014-09-18 03:15:00,3016E-3,5C000000,-0724,0838,11181,027.6,045.5,0.477,732.0,01.19,0.508
2014-09-18 03:16:00,3111E-3,5C000000,-0724,0835,12591,027.6,045.5,0.477,732.0,01.19,0.508
2014-09-18 03:17:00,2843E-3,5C000000,-0724,0849,10801,027.6,045.4,0.477,732.1,01.19,0.508
2014-09-18 03:18:00,2917E-3,5C000000,-0724,0833,12236,027.6,045.4,0.477,732.0,01.19,0.508
2014-09-18 03:19:00,3098E-3,5C000000,-0724,0833,11464,027.6,045.5,0.476,732.0,01.19,0.508
2014-09-18 03:20:00,2835E-3,5C000000,-0724,0829,12319,027.5,045.4,0.476,732.0,01.19,0.508
2014-09-18 03:21:00,3331E-3,5C000000,-0724,0828,12373,027.5,045.4,0.477,732.0,01.19,0.508
2014-09-18 03:22:00,3264E-3,5C000000,-0724,0831,12416,027.5,045.4,0.477,732.0,01.19,0.508
2014-09-18 03:23:00,3134E-3,5C000000,-0724,0829,12565,027.5,045.5,0.477,731.9,01.19,0.508
2014-09-18 03:24:00,3143E-3,5C000000,-0724,0828,12496,027.4,045.5,0.477,731.9,01.19,0.508
2014-09-18 03:25:00,3164E-3,5C000000,-0724,0827,12458,027.4,045.5,0.477,732.0,01.19,0.508
2014-09-18 03:26:00,3400E-3,5C000000,-0724,0833,11317,027.4,045.5,0.477,731.9,01.19,0.508
2014-09-18 03:27:00,3282E-3,5C000000,-0724,0831,10089,027.3,045.4,0.477,731.8,01.19,0.508
2014-09-18 03:28:00,3163E-3,5C000000,-0724,0831,12389,027.4,045.4,0.477,731.9,01.19,0.508
2014-09-18 03:29:00,3317E-3,5C000000,-0724,0829,12300,027.3,045.5,0.477,732.0,01.19,0.508
2014-09-18 03:30:00,3284E-3,5C000000,-0724,0828,12207,027.3,045.4,0.477,732.1,01.19,0.508
2014-09-18 03:31:00,3375E-3,5C000000,-0724,0827,12275,027.3,045.4,0.477,732.1,01.19,0.508
2014-09-18 03:32:00,3106E-3,5C000000,-0724,0831,12565,027.2,045.4,0.477,732.0,01.19,0.508
2014-09-18 03:33:00,3280E-3,5C000000,-0724,0828,12259,027.3,045.4,0.478,732.0,01.19,0.508
2014-09-18 03:34:00,3461E-3,5C000000,-0724,0828,12052,027.2,045.5,0.477,732.0,01.19,0.508
2014-09-18 03:35:00,3237E-3,5C000000,-0724,0828,12313,027.2,045.5,0.477,732.0,01.19,0.508
2014-09-18 03:36:00,3100E-3,5C000000,-0724,0829,12177,027.1,045.5,0.477,732.1,01.19,0.508
2014-09-18 03:37:00,3211E-3,5C000000,-0724,0826,12179,027.1,045.4,0.477,731.9,01.19,0.508
2014-09-18 03:38:00,3146E-3,5C000000,-0724,0827,12143,027.1,045.4,0.477,731.9,01.19,0.508
2014-09-18 03:39:00,3396E-3,5C000000,-0724,0827,12470,027.1,045.4,0.478,732.0,01.19,0.508
2014-09-18 03:40:00,3420E-3,5C000000,-0724,0829,12323,027.1,045.4,0.477,732.0,01.19,0.508
2014-09-18 03:41:00,3316E-3,5C000000,-0724,0827,12287,027.0,045.4,0.477,732.0,01.19,0.508
2014-09-18 03:42:00,3263E-3,5C000000,-0724,0827,12396,027.0,045.4,0.477,731.8,01.19,0.508
2014-09-18 03:43:00,3211E-3,5C000000,-0724,0827,12637,027.0,045.4,0.478,731.9,01.19,0.508
2014-09-18 03:44:00,3218E-3,5C000000,-0724,0828,12236,027.0,045.4,0.478,731.9,01.19,0.508
2014-09-18 03:45:00,3130E-3,5C000000,-0724,0828,12364,026.9,045.4,0.478,731.9,01.19,0.508
2014-09-18 03:46:00,3168E-3,5C000000,-0724,0828,12241,026.9,045.4,0.477,732.0,01.19,0.508
2014-09-18 03:47:00,3242E-3,5C000000,-0724,0829,12430,026.9,045.4,0.477,732.0,01.19,0.508
2014-09-18 03:48:00,3126E-3,5C000000,-0724,0828,12388,026.8,045.4,0.478,731.9,01.19,0.508
2014-09-18 03:49:00,3311E-3,5C000000,-0724,0828,11293,026.8,045.4,0.478,731.9,01.19,0.508
2014-09-18 03:50:00,3081E-3,5C000000,-0724,0829,10104,026.8,045.4,0.478,731.9,01.19,0.508
2014-09-18 03:51:00,3056E-3,5C000000,-0724,0830,12429,026.8,045.4,0.478,731.9,01.19,0.508
2014-09-18 03:52:00,3181E-3,5C000000,-0724,0829,12346,026.8,045.4,0.477,732.0,01.19,0.508
2014-09-18 03:53:00,3138E-3,5C000000,-0724,0829,11125,026.8,045.4,0.478,731.9,01.19,0.508
2014-09-18 03:54:00,3201E-3,5C000000,-0724,0827,12207,026.8,045.4,0.478,732.0,01.19,0.508
2014-09-18 03:55:00,3201E-3,5C000000,-0724,0827,12451,026.8,045.4,0.478,731.9,01.19,0.508
2014-09-18 03:56:00,3107E-3,5C000000,-0724,0826,12261,026.7,045.4,0.478,732.0,01.19,0.508
2014-09-18 03:57:00,3185E-3,5C000000,-0724,0827,12234,026.7,045.4,0.478,731.8,01.19,0.508
2014-09-18 03:58:00,2936E-3,5C000000,-0724,0827,12248,026.7,045.4,0.478,731.9,01.19,0.508
2014-09-18 03:59:00,3275E-3,5C000000,-0724,0827,12203,026.6,045.4,0.478,731.9,01.19,0.508
2014-09-18 04:00:00,3061E-3,5C000000,-0724,0827,12352,026.6,045.4,0.478,731.9,01.19,0.508
2014-09-18 04:01:00,3060E-3,5C000000,-0724,0827,12232,026.7,045.4,0.478,731.9,01.19,0.508
2014-09-18 04:02:00,3191E-3,5C000000,-0724,0827,12303,026.6,045.4,0.478,731.7,01.19,0.508
2014-09-18 04:03:00,3170E-3,5C000000,-0724,0827,12255,026.6,045.4,0.478,731.9,01.19,0.508
2014-09-18 04:04:00,3052E-3,5C000000,-0724,0827,12186,026.6,045.4,0.478,732.0,01.19,0.508
2014-09-18 04:05:00,3218E-3,5C000000,-0724,0827,12214,026.5,045.4,0.478,731.9,01.19,0.508
2014-09-18 04:06:00,3070E-3,5C000000,-0724,0828,12335,026.5,045.4,0.478,731.8,01.19,0.508
2014-09-18 04:07:00,3056E-3,5C000000,-0724,0829,12336,026.5,045.4,0.478,732.1,01.19,0.508
2014-09-18 04:08:00,2975E-3,5C000000,-0724,0827,12292,026.5,045.5,0.478,731.9,01.19,0.508
2014-09-18 04:09:00,3012E-3,5C000000,-0724,0829,12039,026.6,045.5,0.478,732.0,01.19,0.508
2014-09-18 04:10:00,3003E-3,5C000000,-0724,0832,12527,026.5,045.4,0.478,731.9,01.19,0.508
2014-09-18 04:11:00,2910E-3,5C000000,-0724,0834,11302,026.5,045.4,0.478,732.0,01.19,0.508
2014-09-18 04:12:00,2889E-3,5C000000,-0724,0828,12231,026.5,045.4,0.478,731.9,01.19,0.508
2014-09-18 04:13:00,3143E-3,5C000000,-0724,0831,12342,026.5,045.4,0.478,731.9,01.19,0.508
2014-09-18 04:14:00,2818E-3,5C000000,-0724,0831,12722,026.5,045.4,0.478,732.0,01.19,0.508
2014-09-18 04:15:00,2814E-3,5C000000,-0724,0831,12313,026.5,045.4,0.478,732.1,01.19,0.508
2014-09-18 04:16:00,2927E-3,5C000000,-0724,0831,12341,026.5,045.4,0.478,731.9,01.19,0.508
2014-09-18 04:17:00,3038E-3,5C000000,-0724,0828,11158,026.6,045.4,0.478,731.9,01.19,0.508
2014-09-18 04:18:00,3035E-3,5C000000,-0724,0829,12430,026.5,045.4,0.478,732.0,01.19,0.508
2014-09-18 04:19:00,2832E-3,5C000000,-0724,0829,12312,026.5,045.4,0.478,731.9,01.19,0.508
2014-09-18 04:20:00,2907E-3,5C000000,-0724,0830,12138,026.5,045.4,0.478,732.0,01.19,0.508